Year,Month,Day,Hour,Minute,Value (Times are PST for temperature in C)
2017,09,14,00,00,9.70
2017,09,14,00,01,9.60
2017,09,14,00,02,9.60
2017,09,14,00,03,9.60
2017,09,14,00,04,9.60
2017,09,14,00,05,9.60
2017,09,14,00,06,9.60
2017,09,14,00,07,9.60
2017,09,14,00,08,9.60
2017,09,14,00,09,9.60
2017,09,14,00,10,9.60
2017,09,14,00,11,9.60
2017,09,14,00,12,9.60
2017,09,14,00,13,9.60
2017,09,14,00,14,9.60
2017,09,14,00,15,9.60
2017,09,14,00,16,9.60
2017,09,14,00,17,9.60
2017,09,14,00,18,9.50
2017,09,14,00,19,9.50
2017,09,14,00,20,9.50
2017,09,14,00,21,9.40
2017,09,14,00,22,9.40
2017,09,14,00,23,9.40
2017,09,14,00,24,9.40
2017,09,14,00,25,9.30
2017,09,14,00,26,9.30
2017,09,14,00,27,9.30
2017,09,14,00,28,9.30
2017,09,14,00,29,9.30
2017,09,14,00,30,9.30
2017,09,14,00,31,9.30
2017,09,14,00,32,9.20
2017,09,14,00,33,9.20
2017,09,14,00,34,9.30
2017,09,14,00,35,9.30
2017,09,14,00,36,9.30
2017,09,14,00,37,9.30
2017,09,14,00,38,9.30
2017,09,14,00,39,9.30
2017,09,14,00,40,9.30
2017,09,14,00,41,9.30
2017,09,14,00,42,9.20
2017,09,14,00,43,9.20
2017,09,14,00,44,9.20
2017,09,14,00,45,9.20
2017,09,14,00,46,9.20
2017,09,14,00,47,9.20
2017,09,14,00,48,9.10
2017,09,14,00,49,9.10
2017,09,14,00,50,9.10
2017,09,14,00,51,9.10
2017,09,14,00,52,9.10
2017,09,14,00,53,9.10
2017,09,14,00,54,9.00
2017,09,14,00,55,9.00
2017,09,14,00,56,9.00
2017,09,14,00,57,9.00
2017,09,14,00,58,9.00
2017,09,14,00,59,8.90
2017,09,14,01,00,8.90
2017,09,14,01,01,8.80
2017,09,14,01,02,8.80
2017,09,14,01,03,8.80
2017,09,14,01,04,8.80
2017,09,14,01,05,8.80
2017,09,14,01,06,8.80
2017,09,14,01,07,8.70
2017,09,14,01,08,8.70
2017,09,14,01,09,8.80
2017,09,14,01,10,8.80
2017,09,14,01,11,8.80
2017,09,14,01,12,8.80
2017,09,14,01,13,8.90
2017,09,14,01,14,8.90
2017,09,14,01,15,8.80
2017,09,14,01,16,8.80
2017,09,14,01,17,8.70
2017,09,14,01,18,8.70
2017,09,14,01,19,8.70
2017,09,14,01,20,8.70
2017,09,14,01,21,8.70
2017,09,14,01,22,8.70
2017,09,14,01,23,8.70
2017,09,14,01,24,8.70
2017,09,14,01,25,8.60
2017,09,14,01,26,8.60
2017,09,14,01,27,8.60
2017,09,14,01,28,8.60
2017,09,14,01,29,8.60
2017,09,14,01,30,8.60
2017,09,14,01,31,8.60
2017,09,14,01,32,8.60
2017,09,14,01,33,8.60
2017,09,14,01,34,8.70
2017,09,14,01,35,8.70
2017,09,14,01,36,8.70
2017,09,14,01,37,8.70
2017,09,14,01,38,8.70
2017,09,14,01,39,8.70
2017,09,14,01,40,8.70
2017,09,14,01,41,8.70
2017,09,14,01,42,8.70
2017,09,14,01,43,8.70
2017,09,14,01,44,8.60
2017,09,14,01,45,8.60
2017,09,14,01,46,8.60
2017,09,14,01,47,8.60
2017,09,14,01,48,8.60
2017,09,14,01,49,8.60
2017,09,14,01,50,8.70
2017,09,14,01,51,8.70
2017,09,14,01,52,8.70
2017,09,14,01,53,8.70
2017,09,14,01,54,8.70
2017,09,14,01,55,8.70
2017,09,14,01,56,8.70
2017,09,14,01,57,8.70
2017,09,14,01,58,8.70
2017,09,14,01,59,8.70
2017,09,14,02,00,8.80
2017,09,14,02,01,8.80
2017,09,14,02,02,8.80
2017,09,14,02,03,8.80
2017,09,14,02,04,8.80
2017,09,14,02,05,8.80
2017,09,14,02,06,8.90
2017,09,14,02,07,8.90
2017,09,14,02,08,8.90
2017,09,14,02,09,8.90
2017,09,14,02,10,8.90
2017,09,14,02,11,8.90
2017,09,14,02,12,8.90
2017,09,14,02,13,8.90
2017,09,14,02,14,8.90
2017,09,14,02,15,8.90
2017,09,14,02,16,8.90
2017,09,14,02,17,8.90
2017,09,14,02,18,8.90
2017,09,14,02,19,8.90
2017,09,14,02,20,8.90
2017,09,14,02,21,8.90
2017,09,14,02,22,8.90
2017,09,14,02,23,8.90
2017,09,14,02,24,8.90
2017,09,14,02,25,8.90
2017,09,14,02,26,8.90
2017,09,14,02,27,8.90
2017,09,14,02,28,8.80
2017,09,14,02,29,8.80
2017,09,14,02,30,8.80
2017,09,14,02,31,8.80
2017,09,14,02,32,8.80
2017,09,14,02,33,8.80
2017,09,14,02,34,8.80
2017,09,14,02,35,8.90
2017,09,14,02,36,8.80
2017,09,14,02,37,8.80
2017,09,14,02,38,8.80
2017,09,14,02,39,8.80
2017,09,14,02,40,8.80
2017,09,14,02,41,8.80
2017,09,14,02,42,8.80
2017,09,14,02,43,8.80
2017,09,14,02,44,8.80
2017,09,14,02,45,8.80
2017,09,14,02,46,8.80
2017,09,14,02,47,8.80
2017,09,14,02,48,8.80
2017,09,14,02,49,8.90
2017,09,14,02,50,8.90
2017,09,14,02,51,8.90
2017,09,14,02,52,8.90
2017,09,14,02,53,8.90
2017,09,14,02,54,8.90
2017,09,14,02,55,8.90
2017,09,14,02,56,8.90
2017,09,14,02,57,8.90
2017,09,14,02,58,8.90
2017,09,14,02,59,8.90
2017,09,14,03,00,8.90
2017,09,14,03,01,8.90
2017,09,14,03,02,8.90
2017,09,14,03,03,8.90
2017,09,14,03,04,8.90
2017,09,14,03,05,8.90
2017,09,14,03,06,8.90
2017,09,14,03,07,8.90
2017,09,14,03,08,9.00
2017,09,14,03,09,9.00
2017,09,14,03,10,9.10
2017,09,14,03,11,9.10
2017,09,14,03,12,9.10
2017,09,14,03,13,9.20
2017,09,14,03,14,9.20
2017,09,14,03,15,9.10
2017,09,14,03,16,9.10
2017,09,14,03,17,9.10
2017,09,14,03,18,9.10
2017,09,14,03,19,9.10
2017,09,14,03,20,9.10
2017,09,14,03,21,9.10
2017,09,14,03,22,9.00
2017,09,14,03,23,9.00
2017,09,14,03,24,9.00
2017,09,14,03,25,9.00
2017,09,14,03,26,9.00
2017,09,14,03,27,9.00
2017,09,14,03,28,9.00
2017,09,14,03,29,9.00
2017,09,14,03,30,9.00
2017,09,14,03,31,9.00
2017,09,14,03,32,9.10
2017,09,14,03,33,9.10
2017,09,14,03,34,9.10
2017,09,14,03,35,9.10
2017,09,14,03,36,9.10
2017,09,14,03,37,9.10
2017,09,14,03,38,9.10
2017,09,14,03,39,9.00
2017,09,14,03,40,9.00
2017,09,14,03,41,9.00
2017,09,14,03,42,9.00
2017,09,14,03,43,9.00
2017,09,14,03,44,9.00
2017,09,14,03,45,9.00
2017,09,14,03,46,9.00
2017,09,14,03,47,9.00
2017,09,14,03,48,8.90
2017,09,14,03,49,8.90
2017,09,14,03,50,8.90
2017,09,14,03,51,8.80
2017,09,14,03,52,8.80
2017,09,14,03,53,8.80
2017,09,14,03,54,8.70
2017,09,14,03,55,8.70
2017,09,14,03,56,8.70
2017,09,14,03,57,8.70
2017,09,14,03,58,8.70
2017,09,14,03,59,8.70
2017,09,14,04,00,8.70
2017,09,14,04,01,8.70
2017,09,14,04,02,8.70
2017,09,14,04,03,8.70
2017,09,14,04,04,8.70
2017,09,14,04,05,8.70
2017,09,14,04,06,8.70
2017,09,14,04,07,8.70
2017,09,14,04,08,8.70
2017,09,14,04,09,8.70
2017,09,14,04,10,8.70
2017,09,14,04,11,8.70
2017,09,14,04,12,8.70
2017,09,14,04,13,8.70
2017,09,14,04,14,8.70
2017,09,14,04,15,8.70
2017,09,14,04,16,8.70
2017,09,14,04,17,8.70
2017,09,14,04,18,8.70
2017,09,14,04,19,8.70
2017,09,14,04,20,8.70
2017,09,14,04,21,8.70
2017,09,14,04,22,8.70
2017,09,14,04,23,8.70
2017,09,14,04,24,8.70
2017,09,14,04,25,8.70
2017,09,14,04,26,8.70
2017,09,14,04,27,8.70
2017,09,14,04,28,8.70
2017,09,14,04,29,8.70
2017,09,14,04,30,8.70
2017,09,14,04,31,8.70
2017,09,14,04,32,8.70
2017,09,14,04,33,8.70
2017,09,14,04,34,8.70
2017,09,14,04,35,8.70
2017,09,14,04,36,8.70
2017,09,14,04,37,8.70
2017,09,14,04,38,8.70
2017,09,14,04,39,8.80
2017,09,14,04,40,8.80
2017,09,14,04,41,8.70
2017,09,14,04,42,8.70
2017,09,14,04,43,8.80
2017,09,14,04,44,8.80
2017,09,14,04,45,8.80
2017,09,14,04,46,8.80
2017,09,14,04,47,8.80
2017,09,14,04,48,8.80
2017,09,14,04,49,8.80
2017,09,14,04,50,8.80
2017,09,14,04,51,8.80
2017,09,14,04,52,8.80
2017,09,14,04,53,8.70
2017,09,14,04,54,8.70
2017,09,14,04,55,8.70
2017,09,14,04,56,8.70
2017,09,14,04,57,8.70
2017,09,14,04,58,8.70
2017,09,14,04,59,8.70
2017,09,14,05,00,8.70
2017,09,14,05,01,8.70
2017,09,14,05,02,8.70
2017,09,14,05,03,8.70
2017,09,14,05,04,8.70
2017,09,14,05,05,8.70
2017,09,14,05,06,8.70
2017,09,14,05,07,8.70
2017,09,14,05,08,8.70
2017,09,14,05,09,8.60
2017,09,14,05,10,8.60
2017,09,14,05,11,8.60
2017,09,14,05,12,8.70
2017,09,14,05,13,8.70
2017,09,14,05,14,8.70
2017,09,14,05,15,8.70
2017,09,14,05,16,8.70
2017,09,14,05,17,8.70
2017,09,14,05,18,8.70
2017,09,14,05,19,8.70
2017,09,14,05,20,8.60
2017,09,14,05,21,8.60
2017,09,14,05,22,8.70
2017,09,14,05,23,8.60
2017,09,14,05,24,8.60
2017,09,14,05,25,8.60
2017,09,14,05,26,8.60
2017,09,14,05,27,8.60
2017,09,14,05,28,8.50
2017,09,14,05,29,8.50
2017,09,14,05,30,8.50
2017,09,14,05,31,8.50
2017,09,14,05,32,8.40
2017,09,14,05,33,8.40
2017,09,14,05,34,8.40
2017,09,14,05,35,8.30
2017,09,14,05,36,8.30
2017,09,14,05,37,8.30
2017,09,14,05,38,8.20
2017,09,14,05,39,8.20
2017,09,14,05,40,8.20
2017,09,14,05,41,8.10
2017,09,14,05,42,8.10
2017,09,14,05,43,8.10
2017,09,14,05,44,8.10
2017,09,14,05,45,8.10
2017,09,14,05,46,8.10
2017,09,14,05,47,8.10
2017,09,14,05,48,8.10
2017,09,14,05,49,8.10
2017,09,14,05,50,8.10
2017,09,14,05,51,8.10
2017,09,14,05,52,8.10
2017,09,14,05,53,8.10
2017,09,14,05,54,8.10
2017,09,14,05,55,8.10
2017,09,14,05,56,8.10
2017,09,14,05,57,8.10
2017,09,14,05,58,8.10
2017,09,14,05,59,8.10
2017,09,14,06,00,8.10
2017,09,14,06,01,8.20
2017,09,14,06,02,8.20
2017,09,14,06,03,8.20
2017,09,14,06,04,8.20
2017,09,14,06,05,8.20
2017,09,14,06,06,8.30
2017,09,14,06,07,8.30
2017,09,14,06,08,8.40
2017,09,14,06,09,8.40
2017,09,14,06,10,8.40
2017,09,14,06,11,8.40
2017,09,14,06,12,8.40
2017,09,14,06,13,8.40
2017,09,14,06,14,8.40
2017,09,14,06,15,8.40
2017,09,14,06,16,8.30
2017,09,14,06,17,8.30
2017,09,14,06,18,8.30
2017,09,14,06,19,8.30
2017,09,14,06,20,8.30
2017,09,14,06,21,8.30
2017,09,14,06,22,8.30
2017,09,14,06,23,8.30
2017,09,14,06,24,8.20
2017,09,14,06,25,8.20
2017,09,14,06,26,8.20
2017,09,14,06,27,8.20
2017,09,14,06,28,8.20
2017,09,14,06,29,8.20
2017,09,14,06,30,8.20
2017,09,14,06,31,8.20
2017,09,14,06,32,8.20
2017,09,14,06,33,8.20
2017,09,14,06,34,8.30
2017,09,14,06,35,8.30
2017,09,14,06,36,8.30
2017,09,14,06,37,8.30
2017,09,14,06,38,8.30
2017,09,14,06,39,8.30
2017,09,14,06,40,8.30
2017,09,14,06,41,8.30
2017,09,14,06,42,8.30
2017,09,14,06,43,8.30
2017,09,14,06,44,8.30
2017,09,14,06,45,8.30
2017,09,14,06,46,8.30
2017,09,14,06,47,8.30
2017,09,14,06,48,8.30
2017,09,14,06,49,8.30
2017,09,14,06,50,8.30
2017,09,14,06,51,8.30
2017,09,14,06,52,8.30
2017,09,14,06,53,8.30
2017,09,14,06,54,8.40
2017,09,14,06,55,8.40
2017,09,14,06,56,8.40
2017,09,14,06,57,8.50
2017,09,14,06,58,8.50
2017,09,14,06,59,8.50
2017,09,14,07,00,8.60
2017,09,14,07,01,8.60
2017,09,14,07,02,8.60
2017,09,14,07,03,8.70
2017,09,14,07,04,8.70
2017,09,14,07,05,8.70
2017,09,14,07,06,8.70
2017,09,14,07,07,8.70
2017,09,14,07,08,8.70
2017,09,14,07,09,8.80
2017,09,14,07,10,8.80
2017,09,14,07,11,8.80
2017,09,14,07,12,8.90
2017,09,14,07,13,8.90
2017,09,14,07,14,8.90
2017,09,14,07,15,8.90
2017,09,14,07,16,8.80
2017,09,14,07,17,8.80
2017,09,14,07,18,8.70
2017,09,14,07,19,8.70
2017,09,14,07,20,8.60
2017,09,14,07,21,8.60
2017,09,14,07,22,8.60
2017,09,14,07,23,8.60
2017,09,14,07,24,8.60
2017,09,14,07,25,8.60
2017,09,14,07,26,8.70
2017,09,14,07,27,8.70
2017,09,14,07,28,8.70
2017,09,14,07,29,8.70
2017,09,14,07,30,8.80
2017,09,14,07,31,8.80
2017,09,14,07,32,8.80
2017,09,14,07,33,8.90
2017,09,14,07,34,9.00
2017,09,14,07,35,9.00
2017,09,14,07,36,9.10
2017,09,14,07,37,9.20
2017,09,14,07,38,9.20
2017,09,14,07,39,9.30
2017,09,14,07,40,9.40
2017,09,14,07,41,9.40
2017,09,14,07,42,9.50
2017,09,14,07,43,9.60
2017,09,14,07,44,9.70
2017,09,14,07,45,9.80
2017,09,14,07,46,9.90
2017,09,14,07,47,10.00
2017,09,14,07,48,10.10
2017,09,14,07,49,10.00
2017,09,14,07,50,9.90
2017,09,14,07,51,9.80
2017,09,14,07,52,9.80
2017,09,14,07,53,9.90
2017,09,14,07,54,9.90
2017,09,14,07,55,9.90
2017,09,14,07,56,10.00
2017,09,14,07,57,10.00
2017,09,14,07,58,10.10
2017,09,14,07,59,10.10
2017,09,14,08,00,10.10
2017,09,14,08,01,10.20
2017,09,14,08,02,10.20
2017,09,14,08,03,10.30
2017,09,14,08,04,10.40
2017,09,14,08,05,10.40
2017,09,14,08,06,10.50
2017,09,14,08,07,10.60
2017,09,14,08,08,10.70
2017,09,14,08,09,10.80
2017,09,14,08,10,10.90
2017,09,14,08,11,10.90
2017,09,14,08,12,11.00
2017,09,14,08,13,11.20
2017,09,14,08,14,11.30
2017,09,14,08,15,11.40
2017,09,14,08,16,11.60
2017,09,14,08,17,11.70
2017,09,14,08,18,11.90
2017,09,14,08,19,12.10
2017,09,14,08,20,12.20
2017,09,14,08,21,12.30
2017,09,14,08,22,12.30
2017,09,14,08,23,12.30
2017,09,14,08,24,12.40
2017,09,14,08,25,12.40
2017,09,14,08,26,12.50
2017,09,14,08,27,12.50
2017,09,14,08,28,12.40
2017,09,14,08,29,12.40
2017,09,14,08,30,12.30
2017,09,14,08,31,12.20
2017,09,14,08,32,12.10
2017,09,14,08,33,12.10
2017,09,14,08,34,12.00
2017,09,14,08,35,11.90
2017,09,14,08,36,11.90
2017,09,14,08,37,11.80
2017,09,14,08,38,11.80
2017,09,14,08,39,11.80
2017,09,14,08,40,11.80
2017,09,14,08,41,11.80
2017,09,14,08,42,11.80
2017,09,14,08,43,11.90
2017,09,14,08,44,11.90
2017,09,14,08,45,12.00
2017,09,14,08,46,12.10
2017,09,14,08,47,12.20
2017,09,14,08,48,12.20
2017,09,14,08,49,12.30
2017,09,14,08,50,12.40
2017,09,14,08,51,12.40
2017,09,14,08,52,12.50
2017,09,14,08,53,12.50
2017,09,14,08,54,12.60
2017,09,14,08,55,12.60
2017,09,14,08,56,12.70
2017,09,14,08,57,12.80
2017,09,14,08,58,12.80
2017,09,14,08,59,12.80
2017,09,14,09,00,12.80
2017,09,14,09,01,12.80
2017,09,14,09,02,12.70
2017,09,14,09,03,12.80
2017,09,14,09,04,12.80
2017,09,14,09,05,12.90
2017,09,14,09,06,12.90
2017,09,14,09,07,12.90
2017,09,14,09,08,13.00
2017,09,14,09,09,13.00
2017,09,14,09,10,13.10
2017,09,14,09,11,13.20
2017,09,14,09,12,13.40
2017,09,14,09,13,13.50
2017,09,14,09,14,13.70
2017,09,14,09,15,13.80
2017,09,14,09,16,13.90
2017,09,14,09,17,14.00
2017,09,14,09,18,14.10
2017,09,14,09,19,14.30
2017,09,14,09,20,14.50
2017,09,14,09,21,14.60
2017,09,14,09,22,14.80
2017,09,14,09,23,14.90
2017,09,14,09,24,15.10
2017,09,14,09,25,15.20
2017,09,14,09,26,15.30
2017,09,14,09,27,15.40
2017,09,14,09,28,15.50
2017,09,14,09,29,15.50
2017,09,14,09,30,15.60
2017,09,14,09,31,15.60
2017,09,14,09,32,15.70
2017,09,14,09,33,15.70
2017,09,14,09,34,15.80
2017,09,14,09,35,15.80
2017,09,14,09,36,15.90
2017,09,14,09,37,16.00
2017,09,14,09,38,16.10
2017,09,14,09,39,16.20
2017,09,14,09,40,16.30
2017,09,14,09,41,16.30
2017,09,14,09,42,16.40
2017,09,14,09,43,16.40
2017,09,14,09,44,16.40
2017,09,14,09,45,16.50
2017,09,14,09,46,16.60
2017,09,14,09,47,16.70
2017,09,14,09,48,16.80
2017,09,14,09,49,16.90
2017,09,14,09,50,17.00
2017,09,14,09,51,17.10
2017,09,14,09,52,17.10
2017,09,14,09,53,17.10
2017,09,14,09,54,17.10
2017,09,14,09,55,17.20
2017,09,14,09,56,17.10
2017,09,14,09,57,17.10
2017,09,14,09,58,17.10
2017,09,14,09,59,17.00
2017,09,14,10,00,17.10
2017,09,14,10,01,17.10
2017,09,14,10,02,17.10
2017,09,14,10,03,17.10
2017,09,14,10,04,17.10
2017,09,14,10,05,17.20
2017,09,14,10,06,17.20
2017,09,14,10,07,17.20
2017,09,14,10,08,17.20
2017,09,14,10,09,17.30
2017,09,14,10,10,17.40
2017,09,14,10,11,17.60
2017,09,14,10,12,17.70
2017,09,14,10,13,17.80
2017,09,14,10,14,18.00
2017,09,14,10,15,18.10
2017,09,14,10,16,18.30
2017,09,14,10,17,18.30
2017,09,14,10,18,18.30
2017,09,14,10,19,18.30
2017,09,14,10,20,18.30
2017,09,14,10,21,18.30
2017,09,14,10,22,18.30
2017,09,14,10,23,18.30
2017,09,14,10,24,18.30
2017,09,14,10,25,18.30
2017,09,14,10,26,18.40
2017,09,14,10,27,18.30
2017,09,14,10,28,18.30
2017,09,14,10,29,18.30
2017,09,14,10,30,18.20
2017,09,14,10,31,18.20
2017,09,14,10,32,18.20
2017,09,14,10,33,18.20
2017,09,14,10,34,18.20
2017,09,14,10,35,18.20
2017,09,14,10,36,18.20
2017,09,14,10,37,18.20
2017,09,14,10,38,18.20
2017,09,14,10,39,18.20
2017,09,14,10,40,18.20
2017,09,14,10,41,18.20
2017,09,14,10,42,18.20
2017,09,14,10,43,18.30
2017,09,14,10,44,18.30
2017,09,14,10,45,18.40
2017,09,14,10,46,18.50
2017,09,14,10,47,18.60
2017,09,14,10,48,18.70
2017,09,14,10,49,18.80
2017,09,14,10,50,19.00
2017,09,14,10,51,19.00
2017,09,14,10,52,19.00
2017,09,14,10,53,19.10
2017,09,14,10,54,19.10
2017,09,14,10,55,19.10
2017,09,14,10,56,19.10
2017,09,14,10,57,19.10
2017,09,14,10,58,19.10
2017,09,14,10,59,19.10
2017,09,14,11,00,19.20
2017,09,14,11,01,19.10
2017,09,14,11,02,19.10
2017,09,14,11,03,19.00
2017,09,14,11,04,18.90
2017,09,14,11,05,18.80
2017,09,14,11,06,18.70
2017,09,14,11,07,18.60
2017,09,14,11,08,18.60
2017,09,14,11,09,18.50
2017,09,14,11,10,18.50
2017,09,14,11,11,18.40
2017,09,14,11,12,18.30
2017,09,14,11,13,18.20
2017,09,14,11,14,18.20
2017,09,14,11,15,18.20
2017,09,14,11,16,18.10
2017,09,14,11,17,18.00
2017,09,14,11,18,17.90
2017,09,14,11,19,17.90
2017,09,14,11,20,17.90
2017,09,14,11,21,18.00
2017,09,14,11,22,18.00
2017,09,14,11,23,18.10
2017,09,14,11,24,18.20
2017,09,14,11,25,18.30
2017,09,14,11,26,18.40
2017,09,14,11,27,18.50
2017,09,14,11,28,18.60
2017,09,14,11,29,18.70
2017,09,14,11,30,18.70
2017,09,14,11,31,18.70
2017,09,14,11,32,18.70
2017,09,14,11,33,18.70
2017,09,14,11,34,18.70
2017,09,14,11,35,18.80
2017,09,14,11,36,18.90
2017,09,14,11,37,18.90
2017,09,14,11,38,18.80
2017,09,14,11,39,18.70
2017,09,14,11,40,18.70
2017,09,14,11,41,18.60
2017,09,14,11,42,18.60
2017,09,14,11,43,18.40
2017,09,14,11,44,18.30
2017,09,14,11,45,18.30
2017,09,14,11,46,18.30
2017,09,14,11,47,18.40
2017,09,14,11,48,18.40
2017,09,14,11,49,18.60
2017,09,14,11,50,18.60
2017,09,14,11,51,18.60
2017,09,14,11,52,18.60
2017,09,14,11,53,18.60
2017,09,14,11,54,18.60
2017,09,14,11,55,18.60
2017,09,14,11,56,18.70
2017,09,14,11,57,18.70
2017,09,14,11,58,18.80
2017,09,14,11,59,18.80
2017,09,14,12,00,18.90
2017,09,14,12,01,18.90
2017,09,14,12,02,18.90
2017,09,14,12,03,18.90
2017,09,14,12,04,19.00
2017,09,14,12,05,19.00
2017,09,14,12,06,18.90
2017,09,14,12,07,18.90
2017,09,14,12,08,18.80
2017,09,14,12,09,18.80
2017,09,14,12,10,18.80
2017,09,14,12,11,18.80
2017,09,14,12,12,18.80
2017,09,14,12,13,18.80
2017,09,14,12,14,18.80
2017,09,14,12,15,18.80
2017,09,14,12,16,18.80
2017,09,14,12,17,18.80
2017,09,14,12,18,18.90
2017,09,14,12,19,19.00
2017,09,14,12,20,19.10
2017,09,14,12,21,19.30
2017,09,14,12,22,19.60
2017,09,14,12,23,19.80
2017,09,14,12,24,20.00
2017,09,14,12,25,20.30
2017,09,14,12,26,20.30
2017,09,14,12,27,20.30
2017,09,14,12,28,20.30
2017,09,14,12,29,20.30
2017,09,14,12,30,20.30
2017,09,14,12,31,20.40
2017,09,14,12,32,20.60
2017,09,14,12,33,20.60
2017,09,14,12,34,20.40
2017,09,14,12,35,20.20
2017,09,14,12,36,20.00
2017,09,14,12,37,19.80
2017,09,14,12,38,19.70
2017,09,14,12,39,19.60
2017,09,14,12,40,19.70
2017,09,14,12,41,19.80
2017,09,14,12,42,19.80
2017,09,14,12,43,19.90
2017,09,14,12,44,20.00
2017,09,14,12,45,20.20
2017,09,14,12,46,20.20
2017,09,14,12,47,20.20
2017,09,14,12,48,20.10
2017,09,14,12,49,20.10
2017,09,14,12,50,20.00
2017,09,14,12,51,20.10
2017,09,14,12,52,20.00
2017,09,14,12,53,20.00
2017,09,14,12,54,20.10
2017,09,14,12,55,20.10
2017,09,14,12,56,20.00
2017,09,14,12,57,19.90
2017,09,14,12,58,19.80
2017,09,14,12,59,19.80
2017,09,14,13,00,19.80
2017,09,14,13,01,19.80
2017,09,14,13,02,19.60
2017,09,14,13,03,19.60
2017,09,14,13,04,19.60
2017,09,14,13,05,19.70
2017,09,14,13,06,19.60
2017,09,14,13,07,19.60
2017,09,14,13,08,19.60
2017,09,14,13,09,19.50
2017,09,14,13,10,19.40
2017,09,14,13,11,19.40
2017,09,14,13,12,19.30
2017,09,14,13,13,19.20
2017,09,14,13,14,19.30
2017,09,14,13,15,19.30
2017,09,14,13,16,19.40
2017,09,14,13,17,19.50
2017,09,14,13,18,19.50
2017,09,14,13,19,19.60
2017,09,14,13,20,19.70
2017,09,14,13,21,19.80
2017,09,14,13,22,20.00
2017,09,14,13,23,20.20
2017,09,14,13,24,20.30
2017,09,14,13,25,20.30
2017,09,14,13,26,20.40
2017,09,14,13,27,20.40
2017,09,14,13,28,20.60
2017,09,14,13,29,20.80
2017,09,14,13,30,20.90
2017,09,14,13,31,21.10
2017,09,14,13,32,21.00
2017,09,14,13,33,21.00
2017,09,14,13,34,21.10
2017,09,14,13,35,21.20
2017,09,14,13,36,21.20
2017,09,14,13,37,21.20
2017,09,14,13,38,21.10
2017,09,14,13,39,21.10
2017,09,14,13,40,21.20
2017,09,14,13,41,21.10
2017,09,14,13,42,21.20
2017,09,14,13,43,21.30
2017,09,14,13,44,21.30
2017,09,14,13,45,21.30
2017,09,14,13,46,21.20
2017,09,14,13,47,21.00
2017,09,14,13,48,20.90
2017,09,14,13,49,20.90
2017,09,14,13,50,20.80
2017,09,14,13,51,20.80
2017,09,14,13,52,20.80
2017,09,14,13,53,20.80
2017,09,14,13,54,20.80
2017,09,14,13,55,20.80
2017,09,14,13,56,20.80
2017,09,14,13,57,21.00
2017,09,14,13,58,21.10
2017,09,14,13,59,21.30
2017,09,14,14,00,21.40
2017,09,14,14,01,21.40
2017,09,14,14,02,21.40
2017,09,14,14,03,21.50
2017,09,14,14,04,21.60
2017,09,14,14,05,21.50
2017,09,14,14,06,21.40
2017,09,14,14,07,21.40
2017,09,14,14,08,21.30
2017,09,14,14,09,21.30
2017,09,14,14,10,21.20
2017,09,14,14,11,21.20
2017,09,14,14,12,21.30
2017,09,14,14,13,21.40
2017,09,14,14,14,21.30
2017,09,14,14,15,21.30
2017,09,14,14,16,21.30
2017,09,14,14,17,21.20
2017,09,14,14,18,21.20
2017,09,14,14,19,21.20
2017,09,14,14,20,21.20
2017,09,14,14,21,21.30
2017,09,14,14,22,21.40
2017,09,14,14,23,21.40
2017,09,14,14,24,21.40
2017,09,14,14,25,21.40
2017,09,14,14,26,21.50
2017,09,14,14,27,21.50
2017,09,14,14,28,21.50
2017,09,14,14,29,21.60
2017,09,14,14,30,21.60
2017,09,14,14,31,21.70
2017,09,14,14,32,21.70
2017,09,14,14,33,21.80
2017,09,14,14,34,21.90
2017,09,14,14,35,22.10
2017,09,14,14,36,22.20
2017,09,14,14,37,22.30
2017,09,14,14,38,22.40
2017,09,14,14,39,22.50
2017,09,14,14,40,22.60
2017,09,14,14,41,22.60
2017,09,14,14,42,22.50
2017,09,14,14,43,22.30
2017,09,14,14,44,22.10
2017,09,14,14,45,21.90
2017,09,14,14,46,21.70
2017,09,14,14,47,21.60
2017,09,14,14,48,21.60
2017,09,14,14,49,21.60
2017,09,14,14,50,21.60
2017,09,14,14,51,21.50
2017,09,14,14,52,21.50
2017,09,14,14,53,21.50
2017,09,14,14,54,21.40
2017,09,14,14,55,21.40
2017,09,14,14,56,21.40
2017,09,14,14,57,21.50
2017,09,14,14,58,21.40
2017,09,14,14,59,21.40
2017,09,14,15,00,21.40
2017,09,14,15,01,21.30
2017,09,14,15,02,21.30
2017,09,14,15,03,21.30
2017,09,14,15,04,21.30
2017,09,14,15,05,21.30
2017,09,14,15,06,21.40
2017,09,14,15,07,21.60
2017,09,14,15,08,21.70
2017,09,14,15,09,21.70
2017,09,14,15,10,21.70
2017,09,14,15,11,21.80
2017,09,14,15,12,21.80
2017,09,14,15,13,21.80
2017,09,14,15,14,21.90
2017,09,14,15,15,22.00
2017,09,14,15,16,22.10
2017,09,14,15,17,22.10
2017,09,14,15,18,22.10
2017,09,14,15,19,22.20
2017,09,14,15,20,22.20
2017,09,14,15,21,22.10
2017,09,14,15,22,22.00
2017,09,14,15,23,21.90
2017,09,14,15,24,21.70
2017,09,14,15,25,21.50
2017,09,14,15,26,21.50
2017,09,14,15,27,21.40
2017,09,14,15,28,21.50
2017,09,14,15,29,21.60
2017,09,14,15,30,21.70
2017,09,14,15,31,21.70
2017,09,14,15,32,21.50
2017,09,14,15,33,21.30
2017,09,14,15,34,21.30
2017,09,14,15,35,21.30
2017,09,14,15,36,21.40
2017,09,14,15,37,21.40
2017,09,14,15,38,21.60
2017,09,14,15,39,21.70
2017,09,14,15,40,21.70
2017,09,14,15,41,21.70
2017,09,14,15,42,21.70
2017,09,14,15,43,21.80
2017,09,14,15,44,21.80
2017,09,14,15,45,21.90
2017,09,14,15,46,22.00
2017,09,14,15,47,22.00
2017,09,14,15,48,22.10
2017,09,14,15,49,22.00
2017,09,14,15,50,22.00
2017,09,14,15,51,22.10
2017,09,14,15,52,22.10
2017,09,14,15,53,22.10
2017,09,14,15,54,22.10
2017,09,14,15,55,22.10
2017,09,14,15,56,22.20
2017,09,14,15,57,22.20
2017,09,14,15,58,22.30
2017,09,14,15,59,22.40
2017,09,14,16,00,22.40
2017,09,14,16,01,22.30
2017,09,14,16,02,22.30
2017,09,14,16,03,22.20
2017,09,14,16,04,22.00
2017,09,14,16,05,21.90
2017,09,14,16,06,21.90
2017,09,14,16,07,21.90
2017,09,14,16,08,22.00
2017,09,14,16,09,22.00
2017,09,14,16,10,22.00
2017,09,14,16,11,21.90
2017,09,14,16,12,21.80
2017,09,14,16,13,21.70
2017,09,14,16,14,21.60
2017,09,14,16,15,21.60
2017,09,14,16,16,21.50
2017,09,14,16,17,21.40
2017,09,14,16,18,21.40
2017,09,14,16,19,21.40
2017,09,14,16,20,21.40
2017,09,14,16,21,21.40
2017,09,14,16,22,21.30
2017,09,14,16,23,21.30
2017,09,14,16,24,21.40
2017,09,14,16,25,21.40
2017,09,14,16,26,21.40
2017,09,14,16,27,21.50
2017,09,14,16,28,21.60
2017,09,14,16,29,21.60
2017,09,14,16,30,21.60
2017,09,14,16,31,21.50
2017,09,14,16,32,21.60
2017,09,14,16,33,21.70
2017,09,14,16,34,21.70
2017,09,14,16,35,21.70
2017,09,14,16,36,21.70
2017,09,14,16,37,21.70
2017,09,14,16,38,21.70
2017,09,14,16,39,21.80
2017,09,14,16,40,21.90
2017,09,14,16,41,22.00
2017,09,14,16,42,22.10
2017,09,14,16,43,22.20
2017,09,14,16,44,22.30
2017,09,14,16,45,22.20
2017,09,14,16,46,22.00
2017,09,14,16,47,21.90
2017,09,14,16,48,21.90
2017,09,14,16,49,21.80
2017,09,14,16,50,21.80
2017,09,14,16,51,21.80
2017,09,14,16,52,21.80
2017,09,14,16,53,21.80
2017,09,14,16,54,21.80
2017,09,14,16,55,21.70
2017,09,14,16,56,21.60
2017,09,14,16,57,21.60
2017,09,14,16,58,21.50
2017,09,14,16,59,21.40
2017,09,14,17,00,21.30
2017,09,14,17,01,21.30
2017,09,14,17,02,21.30
2017,09,14,17,03,21.40
2017,09,14,17,04,21.40
2017,09,14,17,05,21.40
2017,09,14,17,06,21.50
2017,09,14,17,07,21.60
2017,09,14,17,08,21.60
2017,09,14,17,09,21.60
2017,09,14,17,10,21.70
2017,09,14,17,11,21.70
2017,09,14,17,12,21.70
2017,09,14,17,13,21.70
2017,09,14,17,14,21.80
2017,09,14,17,15,21.80
2017,09,14,17,16,21.80
2017,09,14,17,17,21.80
2017,09,14,17,18,21.80
2017,09,14,17,19,21.90
2017,09,14,17,20,21.90
2017,09,14,17,21,22.00
2017,09,14,17,22,22.00
2017,09,14,17,23,22.00
2017,09,14,17,24,22.00
2017,09,14,17,25,22.00
2017,09,14,17,26,22.00
2017,09,14,17,27,21.90
2017,09,14,17,28,21.90
2017,09,14,17,29,21.80
2017,09,14,17,30,21.90
2017,09,14,17,31,21.90
2017,09,14,17,32,21.80
2017,09,14,17,33,21.80
2017,09,14,17,34,21.80
2017,09,14,17,35,21.80
2017,09,14,17,36,21.80
2017,09,14,17,37,21.80
2017,09,14,17,38,21.80
2017,09,14,17,39,21.90
2017,09,14,17,40,21.90